Zurück zum Katalog

STARLINK-4766

AktivKommunikationVLEO
NORAD 53840·PAYLOAD·🇺🇸 United States

Gestartet Sep 19, 2022 von Cape Canaveral Space Force Station

Loading…

Nächste Überflüge (nächste 24 Stunden)

TLE

AktuellSource: CelesTrak SupGP

Epoche: Sep 14, 2026, 21:10 UTC

1 53840C 22114Y   26257.88243056 -.00032864  00000+0 -10568-2 0  2571
2 53840  53.1577 150.1070 0001353  90.8216 283.3544 15.31717471    19

Verfolge STARLINK-4766 in Echtzeit mit AllMySat

Download on the App Store